Kenosha, WI

1:51 PM CDT on August 18, 2017 (GMT -0500)
Kenosha Regional

Weather History for KENW - February, 2014

Change the Weather History Date:

Sunday, February 23, 2014

  Actual Average Record
Temperature  
Mean Temperature 18 °F -  
Max Temperature 24 °F 34 °F 61 °F (1984)
Min Temperature 12 °F 22 °F -9 °F (2015)
Degree Days  
Heating Degree Days 47    
Moisture  
Dew Point 5 °F    
Average Humidity 60    
Maximum Humidity 68    
Minimum Humidity 51    
Precipitation  
Precipitation 0.00 in - - ()
Sea Level Pressure  
Sea Level Pressure 30.17 in    
Wind  
Wind Speed 12 mph (West)    
Max Wind Speed 21 mph    
Max Gust Speed 29 mph    
Visibility 10 miles    
Events      
Averages and records for this station are not official NWS values.
T = Trace of Precipitation, MM = Missing Value Source: NWS Daily Summary

Daily Weather History Graph

Daily Weather History Graph

Search for Another Location

Airport or City:

Trip Planner

Search our weather history database for the weather conditions in past years. The results will help you decide how hot, cold, wet, or windy it might be!

Date:

Astronomy

Feb. 23, 2014 Rise Set
Actual Time 6:36 AM CST 5:33 PM CST
Civil Twilight 6:08 AM CST 6:02 PM CST
Nautical Twilight 5:35 AM CST 6:35 PM CST
Astronomical Twilight 5:02 AM CST 7:07 PM CST
Moon 1:38 AM CST (2/23) 11:32 AM CST (2/23)
Length of Visible Light 11h 54m
Length of Day
10h 57m
Last Quarter, 38% of the Moon is Illuminated
Feb 23
Last Quarter
Mar 1
New
Mar 8
First Quarter
Mar 16
Full
Mar 23
Last Quarter

Hourly Weather History & Observations

Time (CST) Temp. Windchill Dew Point Humidity Pressure Visibility Wind Dir Wind Speed Gust Speed Precip Events Conditions
12:53 AM 16.0 °F 2.3 °F 6.1 °F 65% 30.08 in 10.0 mi West 12.7 mph - N/A   Clear
1:53 AM 15.1 °F 2.5 °F 6.1 °F 68% 30.09 in 10.0 mi West 10.4 mph 17.3 mph N/A   Clear
2:53 AM 14.0 °F 1.2 °F 5.0 °F 67% 30.09 in 10.0 mi West 10.4 mph - N/A   Clear
3:53 AM 12.9 °F 2.6 °F 3.9 °F 67% 30.12 in 10.0 mi WNW 6.9 mph - N/A   Clear
4:53 AM 12.9 °F 0.7 °F 3.0 °F 65% 30.14 in 10.0 mi WNW 9.2 mph - N/A   Clear
5:53 AM 12.0 °F 0.5 °F 3.0 °F 67% 30.16 in 10.0 mi West 8.1 mph - N/A   Clear
6:53 AM 12.0 °F -0.4 °F 1.9 °F 64% 30.18 in 10.0 mi West 9.2 mph - N/A   Clear
7:53 AM 12.9 °F 1.6 °F 1.9 °F 62% 30.20 in 10.0 mi West 8.1 mph - N/A   Clear
8:53 AM 14.0 °F 1.2 °F 1.9 °F 59% 30.21 in 10.0 mi WNW 10.4 mph - N/A   Clear
9:53 AM 17.1 °F 5.0 °F 3.0 °F 54% 30.21 in 10.0 mi WNW 10.4 mph - N/A   Clear
10:53 AM 19.0 °F 6.1 °F 3.9 °F 52% 30.20 in 10.0 mi WNW 12.7 mph - N/A   Clear
11:53 AM 21.9 °F 9.2 °F 6.1 °F 51% 30.19 in 10.0 mi WNW 13.8 mph - N/A   Clear
12:53 PM 23.0 °F 11.7 °F 8.1 °F 53% 30.18 in 10.0 mi West 11.5 mph - N/A   Clear
1:53 PM 24.1 °F 10.1 °F 8.1 °F 51% 30.17 in 10.0 mi West 18.4 mph - N/A   Clear
2:53 PM 24.1 °F 11.0 °F 9.0 °F 53% 30.17 in 10.0 mi West 16.1 mph 26.5 mph N/A   Clear
3:53 PM 24.1 °F 9.4 °F 8.1 °F 51% 30.17 in 10.0 mi West 20.7 mph 25.3 mph N/A   Clear
4:53 PM 21.9 °F 6.9 °F 8.1 °F 55% 30.17 in 10.0 mi West 19.6 mph 26.5 mph N/A   Clear
5:53 PM 19.9 °F 5.2 °F 8.1 °F 60% 30.17 in 10.0 mi West 17.3 mph - N/A   Clear
6:53 PM 19.0 °F 3.2 °F 6.1 °F 57% 30.17 in 10.0 mi West 19.6 mph 27.6 mph N/A   Clear
7:53 PM 18.0 °F 2.2 °F 5.0 °F 57% 30.18 in 10.0 mi West 18.4 mph 28.8 mph N/A   Clear
8:53 PM 16.0 °F 0.1 °F 3.9 °F 59% 30.19 in 10.0 mi West 17.3 mph - N/A   Clear
9:53 PM 15.1 °F -1.1 °F 3.9 °F 61% 30.20 in 10.0 mi West 17.3 mph 26.5 mph N/A   Clear
10:53 PM 12.9 °F -2.2 °F 3.0 °F 65% 30.22 in 10.0 mi West 13.8 mph - N/A   Clear
11:53 PM 12.0 °F -4.0 °F 3.0 °F 67% 30.21 in 10.0 mi West 15.0 mph - N/A   Clear